Вернуться в каталог

STARLINK-33550

АктивенСвязьVLEO
NORAD 62285·PAYLOAD·🇺🇸 United States

Запущен Dec 8, 2024 с Cape Canaveral Space Force Station

Loading…

Ближайшие Пролёты (ближайшие 24 часа)

TLE

СвежийSource: CelesTrak SupGP

Эпоха: Sep 14, 2026, 22:37 UTC

1 62285C 24237U   26257.94284722  .00016904  00000+0  61217-3 0  2577
2 62285  43.0006 227.5043 0001428 263.2974 194.2695 15.27574785    17

Отслеживайте STARLINK-33550 в реальном времени с AllMySat

Download on the App Store